New York JFK, NY

7:00 AM EDT on August 23, 2017 (GMT -0400)
Kennedy International

Weather History for KJFK - March, 2014

Change the Weather History Date:

Saturday, March 29, 2014

  Actual Average Record
Temperature  
Mean Temperature 47 °F 46 °F  
Max Temperature 52 °F 53 °F 82 °F (1998)
Min Temperature 41 °F 38 °F 26 °F (1959)
Degree Days  
Heating Degree Days 18 20  
Month to date heating degree days 813 686  
Since 1 July heating degree days 4520 4197  
Cooling Degree Days 0 0  
Month to date cooling degree days 0 0  
Year to date cooling degree days 0 0  
Moisture  
Dew Point 43 °F    
Average Humidity 84    
Maximum Humidity 93    
Minimum Humidity 74    
Precipitation  
Precipitation 2.60 in 0.13 in 2.60 in (2014)
Month to date precipitation 3.52 3.52  
Year to date precipitation 11.12 9.27  
Snow  
Snow 0.00 in 0.10 in 4.10 in (1974)
Month to date snowfall 0.6 3.4  
Since 1 July snowfall 45.5 22.9  
Snow Depth 0.00 in    
Sea Level Pressure  
Sea Level Pressure 30.04 in    
Wind  
Wind Speed 11 mph (NE)    
Max Wind Speed 22 mph    
Max Gust Speed 28 mph    
Visibility 6 miles    
Events Rain    
T = Trace of Precipitation, MM = Missing Value Source: NWS Daily Summary

Daily Weather History Graph

Daily Weather History Graph

Search for Another Location

Airport or City:

Trip Planner

Search our weather history database for the weather conditions in past years. The results will help you decide how hot, cold, wet, or windy it might be!

Date:

Astronomy

Mar. 29, 2014 Rise Set
Actual Time 6:43 AM EDT 7:16 PM EDT
Civil Twilight 6:16 AM EDT 7:44 PM EDT
Nautical Twilight 5:43 AM EDT 8:16 PM EDT
Astronomical Twilight 5:10 AM EDT 8:50 PM EDT
Moon 5:51 AM EDT (3/29) 6:18 PM EDT (3/29)
Length of Visible Light 13h 27m
Length of Day
12h 33m
Waning Crescent, 2% of the Moon is Illuminated
Mar 29
Waning Crescent
Mar 30
New
Apr 7
First Quarter
Apr 15
Full
Apr 22
Last Quarter

Hourly Weather History & Observations

Time (EDT) Temp. Windchill Dew Point Humidity Pressure Visibility Wind Dir Wind Speed Gust Speed Precip Events Conditions
12:51 AM 46.0 °F - 42.1 °F 86% 30.11 in 10.0 mi Calm Calm - N/A   Mostly Cloudy
1:51 AM 42.1 °F 38.4 °F 37.9 °F 85% 30.11 in 10.0 mi SSE 5.8 mph - N/A   Scattered Clouds
2:51 AM 42.1 °F 40.2 °F 39.0 °F 89% 30.12 in 9.0 mi NE 3.5 mph - N/A   Scattered Clouds
3:51 AM 41.0 °F - 37.9 °F 89% 30.12 in 8.0 mi Calm Calm - N/A   Scattered Clouds
4:51 AM 46.9 °F - 42.1 °F 83% 30.13 in 10.0 mi North 5.8 mph - N/A   Scattered Clouds
5:51 AM 46.0 °F - 41.0 °F 83% 30.14 in 10.0 mi Calm Calm - N/A   Mostly Cloudy
6:51 AM 44.1 °F - 41.0 °F 89% 30.17 in 10.0 mi Calm Calm - N/A   Overcast
7:51 AM 48.9 °F - 43.0 °F 80% 30.18 in 10.0 mi North 8.1 mph - N/A   Overcast
8:51 AM 50.0 °F - 42.1 °F 74% 30.19 in 10.0 mi NNE 11.5 mph - N/A   Overcast
9:51 AM 48.9 °F - 41.0 °F 74% 30.20 in 10.0 mi NNE 12.7 mph - 0.00 in Rain Light Rain
10:51 AM 48.0 °F - 43.0 °F 83% 30.19 in 7.0 mi NE 11.5 mph - 0.04 in Rain Light Rain
11:51 AM 48.0 °F - 43.0 °F 83% 30.18 in 7.0 mi ENE 10.4 mph - 0.06 in Rain Light Rain
12:51 PM 48.0 °F - 44.1 °F 86% 30.13 in 7.0 mi NE 11.5 mph - 0.04 in Rain Light Rain
1:12 PM 48.2 °F - 44.6 °F 87% 30.12 in 5.0 mi ENE 12.7 mph - 0.03 in Rain Rain
1:39 PM 48.2 °F - 44.6 °F 87% 30.12 in 3.0 mi ENE 13.8 mph - 0.07 in Rain Heavy Rain
1:51 PM 48.0 °F - 44.1 °F 86% 30.11 in 5.0 mi East 17.3 mph 20.7 mph 0.13 in Rain Rain
2:51 PM 48.0 °F - 44.1 °F 86% 30.06 in 4.0 mi ENE 16.1 mph - 0.09 in Rain Rain
3:51 PM 48.0 °F - 45.0 °F 89% 30.03 in 5.0 mi ENE 11.5 mph - 0.08 in Rain Rain
4:51 PM 48.0 °F - 45.0 °F 89% 30.00 in 4.0 mi NE 11.5 mph - 0.13 in Rain Rain
5:02 PM 48.2 °F - 46.4 °F 93% 29.98 in 2.5 mi NE 12.7 mph - 0.05 in Rain Rain
5:39 PM 48.2 °F - 46.4 °F 93% 29.97 in 1.8 mi ENE 12.7 mph 19.6 mph 0.15 in Rain Rain
5:51 PM 48.9 °F - 46.0 °F 90% 29.96 in 1.5 mi ENE 13.8 mph - 0.18 in Rain Rain
6:51 PM 48.0 °F - 45.0 °F 89% 29.94 in 5.0 mi ENE 19.6 mph 25.3 mph 0.18 in Rain Rain
7:51 PM 48.0 °F - 45.0 °F 89% 29.90 in 7.0 mi ENE 15.0 mph - 0.11 in Rain Rain
8:51 PM 48.0 °F - 46.0 °F 93% 29.87 in 5.0 mi ENE 10.4 mph - 0.22 in Rain Rain
9:51 PM 48.0 °F - 45.0 °F 89% 29.83 in 4.0 mi NE 18.4 mph - 0.20 in Rain Heavy Rain
10:51 PM 46.9 °F - 44.1 °F 90% 29.76 in 2.5 mi NE 17.3 mph - 0.40 in Rain Heavy Rain
11:48 PM 46.4 °F 40.4 °F 44.6 °F 93% 29.69 in 3.0 mi NE 13.8 mph - 0.25 in Rain Rain
11:51 PM 46.9 °F - 45.0 °F 93% 29.69 in 2.5 mi NE 15.0 mph - 0.25 in Rain Rain